Location: Unspecified
(52.4292°N, 19.3359°E)
Time: 14:57:17
(UTC+02:00)

Transit 2A Rocket - Pass Details

Date: 24 May 2024
Orbit: 583 x 910 km, 66.7° (Epoch: 14 June)

Event Time Altitude Azimuth Distance (km) Brightness Sun altitude
Rises 12:39:38 0° 319° (NW) 3,398 8.1 58.5°
Reaches altitude 10° 12:42:03 10° 316° (NW) 2,500 7.5 58.5°
Maximum altitude 12:47:49 62° 238° (WSW) 1,002 7.0 58.4°
Drops below altitude 10° 12:53:47 10° 159° (SSE) 2,589 8.3 58.4°
Sets 12:56:20 0° 156° (SSE) 3,528 8.8 58.3°
